Regional Weather Roundup
Issued by NWS

Home | Current Version | Previous Version | Graphics & Text | Print | Product List | Glossary On
Versions: 1 2 3 4 5 6 7 8 9 10 11 12 13 14 15 16 17 18 19 20 21 22 23 24 25 26 27 28 29 30 31 32 33 34 35 36 37 38 39 40 41 42 43 44 45 46 47 48 49 50
000
ASUS45 KBOU 260907
RWRCO

WEATHER ROUNDUP FOR COLORADO
NATIONAL WEATHER SERVICE DENVER/BOULDER CO
200 AM MST MON JAN 26 2015

NOTE: "FAIR" INDICATES FEW OR NO CLOUDS BELOW 12000 FEET WITH NO
SIGNIFICANT WEATHER AND/OR OBSTRUCTIONS TO VISIBILITY.

COZ001>005-013-030-031-261000-
...NORTHWEST COLORADO...

CITY           SKY/WX    TMP DP  RH WIND       PRES   REMARKS
CRAIG          PTCLDY    18  14  84 SW5       30.40F WCI  11
HAYDEN         PTCLDY    27  19  74 E13       30.40F WCI  16
MEEKER         PTCLDY    19  15  84 NE7       30.41R WCI  10
MOUNT WERNER   NOT AVBL
STEAMBOAT SPGS PTCLDY    22  20  93 CALM      30.43S
WALDEN         PTCLDY    21  16  79 E3        30.43R
$$

COZ006>008-011-261000-
...WEST CENTRAL VALLEYS...

CITY           SKY/WX    TMP DP  RH WIND       PRES   REMARKS
GRAND JUNCTION PTCLDY    25  22  88 E5        30.37S WCI  19
MONTROSE       PTCLDY    23  19  85 SE6       30.40R WCI  16
EAGLE          PTCLDY    21  21 100 CALM      30.48F
RIFLE          PTCLDY    26  21  81 E6        30.41R WCI  19
DELTA          PTCLDY    24  20  85 NE3       30.40R
NUCLA          PTCLDY    30  23  74 E10       30.40R WCI  21
$$

COZ017>023-064>068-261000-
...SOUTHWEST COLORADO...

CITY           SKY/WX    TMP DP  RH WIND       PRES   REMARKS
DURANGO        PTCLDY    25  20  81 N3        30.38R
CORTEZ         CLEAR     23  19  85 E5        30.36S WCI  17
PAGOSA SPRINGS PTCLDY    24  18  77 CALM      30.42R
TELLURIDE      PTCLDY    32  17  53 CALM      30.42R
WOLF CREEK PAS NOT AVBL
$$

COZ009-010-012-014-032>034-037-058>063-261000-
...CENTRAL COLORADO...

CITY           SKY/WX    TMP DP  RH WIND       PRES   REMARKS
ASPEN          CLEAR     24  17  74 CALM      30.41F
BUENA VISTA    PTCLDY    38  19  48 E5G23     30.38S
COPPER MTN     PTCLDY    34  18  51 W5        30.52S WCI  30
BERTHOUD PASS  FAIR      19  14  79 N14G26    30.50R WCI   6
COTTONWOOD PAS PTCLDY    45  10  24 CALM      30.43S
GUNNISON       PTCLDY     0 -11  60 CALM      30.49S
KREMMLING      PTCLDY    14  12  92 CALM      30.49R
LEADVILLE      PTCLDY    20  13  74 NE8       30.46S WCI  10
MONARCH PASS   PTCLDY    32  12  43 E20G26    30.58R WCI  20
SALIDA         PTCLDY    33  20  60 W8        30.46S WCI  25
SUNLIGHT       PTCLDY    32  21  64 CALM        N/A
WILKERSON PASS PTCLDY    34  12  40 N13G21    30.48R WCI  25
$$

COZ069>075-261000-
...SAN LUIS VALLEY/SANGRE DE CRISTO MOUNTAINS...

CITY           SKY/WX    TMP DP  RH WIND       PRES   REMARKS
ALAMOSA        PTCLDY    11   7  84 W7        30.39R WCI   0
LA VETA PASS   NOT AVBL
SAGUACHE       PTCLDY    28  19  69 E3        30.40R
$$

COZ035-036-038>040-261000-
...NORTHERN COLORADO FRONT RANGE...

CITY           SKY/WX    TMP DP  RH WIND       PRES   REMARKS
DENVER INTL AP MOCLDY    43  24  47 SW8       30.20S
DMNS CITY PARK   N/A     38  23  54 S8        30.21S
AURORA         PTCLDY    41  24  51 S10       30.22S
FRONT RANGE AP NOT AVBL
ERIE MUNI ARPT PTCLDY    30  26  84 S5        30.20S WCI  25
BOULDER MUN AP PTCLDY    43  25  49 SW7       30.20R
CENTENNIAL     PTCLDY    37  26  64 S8        30.23R
BROOMFIELD     PTCLDY    46  23  39 W5        30.22R
FORT COLLINS   MOCLDY    37  27  65 S5        30.20S
LONGMONT       MOCLDY    34  26  72 W7        30.21S WCI  28
$$

COZ041-046-047-076>085-087-088-261000-
...PIKES PEAK/PALMER DIVIDE AND SOUTHERN FOOTHILLS...

CITY           SKY/WX    TMP DP  RH WIND       PRES   REMARKS
COLO. SPRINGS  PTCLDY    37  23  56 SW3       30.26S
A. F. ACADEMY  PTCLDY    29  22  73 NE7       30.27R WCI  22
ELLICOTT       PTCLDY   N/A N/A N/A N5        30.24S
FALCON         PTCLDY    35  22  58 NW6       30.28S WCI  30
FORT CARSON    CLEAR     36  24  62 NW10      30.24R
LIMON          PTCLDY    35  25  66 N5        30.20S WCI  31
MONUMENT HILL  CLEAR     34  23  64 W10       30.28R WCI  26
TRINIDAD       PTCLDY    36  23  59 SW17      30.27R
$$

COZ042>045-048>051-090-091-261000-
...NORTHEAST COLORADO...

CITY           SKY/WX    TMP DP  RH WIND       PRES   REMARKS
GREELEY ARPT   MOCLDY    30  21  69 W5        30.18S WCI  25
AKRON          PTCLDY    37  28  70 W15       30.15S
BURLINGTON     PTCLDY    37  29  72 W12       30.14S
WRAY           PTCLDY    39  31  73 W12       30.11S
STERLING       PTCLDY    45  32  61 NW14      30.13R
HOLYOKE        PTCLDY    45  32  61 W14G21    30.09S
FORT MORGAN    PTCLDY    32  28  84 W13       30.18R WCI  22
$$

COZ086-089-092>099-261000-
...SOUTHEAST COLORADO...

CITY           SKY/WX    TMP DP  RH WIND       PRES   REMARKS
PUEBLO         CLEAR     29  26  89 W3        30.23R
LA JUNTA       CLEAR     33  27  78 SW7       30.20F WCI  27
LAMAR          PTCLDY    32  29  88 SW9       30.18R WCI  24
SPRINGFIELD      N/A     31  25  78 W3        30.20R
$$



USA.gov is the U.S. government's official web portal to all federal, state and local government web resources and services.